Location: Hobi?a Gr?di?te
(45.4833°N, 22.7833°E)
Time: 11:36:55
(UTC+00:00)

Lacrosse 5 - Pass Details

Date: 28 January 2023
Orbit: 714 x 724 km, 57.0° (Epoch: 09 March)

Event Time Altitude Azimuth Distance (km) Brightness Sun altitude
Rises 18:38:13 0° 227° (SW) 3,125 5.7 -33.1°
Reaches altitude 10° 18:40:35 10° 227° (SW) 2,208 4.8 -33.5°
Enters shadow 18:42:20 22° 227° (SW) 1,555 3.9 -33.8°
